Weather History for Queretaro Airport, Mexico

Change the Weather History Date:

Thursday, September 5, 2013

  Actual Average Record
Temperature  
Mean Temperature 68 °F -  
Max Temperature 80 °F 75 °F 86 °F (2012)
Min Temperature 57 °F 56 °F 35 °F (2005)
Cooling Degree Days 4    
Growing Degree Days 18 (Base 50)    
Moisture  
Dew Point 52 °F    
Average Humidity 58    
Maximum Humidity 74    
Minimum Humidity 27    
Precipitation  
Precipitation 0.00 in - - ()
Sea Level Pressure  
Sea Level Pressure 30.16 in    
Wind  
Wind Speed 7 mph ()    
Max Wind Speed 21 mph    
Max Gust Speed -    
Visibility 7.5 miles    
Events      
Averages and records for this station are not official NWS values.
T = Trace of Precipitation, MM = Missing Value Source: Averaged Metar Reports

Daily Weather History Graph

Daily Weather History Graph

Search for Another Location

Airport:

Trip Planner

Search our weather history database for the weather conditions in past years. The results will help you decide how hot, cold, wet, or windy it might be!

Date:

Astronomy

Sep. 05, 2013 Rise Set
Actual Time 7:25 AM CDT 7:52 PM CDT
Civil Twilight 7:03 AM CDT 8:14 PM CDT
Nautical Twilight 6:37 AM CDT 8:40 PM CDT
Astronomical Twilight 6:10 AM CDT 9:07 PM CDT
Moon 7:30 AM CDT (9/5) 7:57 PM CDT (9/5)
Length of Visible Light 13h 11m
Length of Day
12h 26m
New Moon, 0% of the Moon is Illuminated
Sep 5
New Moon
Sep 12
First Quarter
Sep 19
Full
Sep 26
Last Quarter
Oct 4
New

Hourly Weather History & Observations

Time (CDT) Temp. Dew Point Humidity Pressure Visibility Wind Dir Wind Speed Gust Speed Precip Events Conditions
12:40 AM 62 °F 54 °F 69% 29.81 in 3 mi East 4.5 mph - -   Partly Cloudy
12:45 AM 59.0 °F 48.2 °F 67% 30.31 in 7.0 mi NE 13.8 mph - N/A   Overcast
1:55 AM 59.0 °F 48.2 °F 67% 30.31 in 7.0 mi ENE 11.5 mph - N/A   Overcast
2:42 AM 59.0 °F 48.2 °F 67% 30.31 in 7.0 mi NE 6.9 mph - N/A   Overcast
3:40 AM 61 °F 54 °F 71% 29.82 in 3 mi East 4.5 mph - -   Partly Cloudy
3:52 AM 57.2 °F 48.2 °F 72% 30.29 in 7.0 mi Calm Calm - N/A   Mostly Cloudy
4:50 AM 57.2 °F 48.2 °F 72% 30.27 in 7.0 mi NE 11.5 mph - N/A   Mostly Cloudy
5:45 AM 57.2 °F 48.2 °F 72% 30.27 in 7.0 mi ENE 11.5 mph - N/A   Overcast
6:40 AM 60 °F 54 °F 74% 29.85 in 6 mi NE 11.2 mph - -   Mostly Cloudy
6:45 AM 57.2 °F 48.2 °F 72% 30.27 in 6.0 mi NE 5.8 mph - N/A   Overcast
8:45 AM 60.8 °F 50.0 °F 68% 30.25 in 6.0 mi NE 5.8 mph - N/A   Overcast
9:40 AM 65 °F 54 °F 59% 29.90 in 16 mi East 17.9 mph - -   Partly Cloudy
9:45 AM 71.6 °F 53.6 °F 53% 30.28 in 6.0 mi Calm Calm - N/A   Mostly Cloudy
10:45 AM 68.0 °F 50.0 °F 52% 30.32 in 6.0 mi NE 5.8 mph - N/A   Mostly Cloudy
11:45 AM 68.0 °F 50.0 °F 52% 30.32 in 6.0 mi Calm Calm - N/A   Mostly Cloudy
12:45 PM 73.4 °F 53.6 °F 50% 30.32 in 6.0 mi Calm Calm - N/A   Mostly Cloudy
12:50 PM 75 °F 54 °F 38% 29.86 in 14 mi ENE 4.5 mph - -   Partly Cloudy
1:45 PM 75.2 °F 57.2 °F 53% 30.32 in 6.0 mi Calm Calm - N/A   Mostly Cloudy
2:45 PM 73.4 °F 55.4 °F 53% 30.28 in 6.0 mi NE 11.5 mph - N/A   Mostly Cloudy
3:45 PM 78.8 °F 57.2 °F 47% 30.22 in 6.0 mi ENE 5.8 mph - N/A   Mostly Cloudy
3:52 PM 81 °F 53 °F 27% 29.73 in 14 mi East 4.5 mph - -   Partly Cloudy
4:45 PM 77.0 °F 59.0 °F 54% 30.22 in 7.0 mi NE 9.2 mph - N/A   Mostly Cloudy
5:45 PM 77.0 °F 59.0 °F 54% 30.22 in 7.0 mi NE 11.5 mph - N/A   Mostly Cloudy
6:45 PM 77 °F 53 °F 32% 29.68 in 14 mi NE 8.9 mph - -   Mostly Cloudy
6:45 PM 75.2 °F 57.2 °F 53% 30.22 in 7.0 mi NNE 20.7 mph - N/A   Mostly Cloudy
7:45 PM 68.0 °F 53.6 °F 60% 30.23 in 7.0 mi NE 17.3 mph - N/A   Mostly Cloudy
8:45 PM 66.2 °F 50.0 °F 56% 30.22 in 6.0 mi ENE 11.5 mph - N/A   Overcast
9:45 PM 66.2 °F 50.0 °F 56% 30.30 in 6.0 mi ESE 9.2 mph - N/A   Mostly Cloudy
9:50 PM 68 °F 56 °F 55% 29.75 in 14 mi East 4.5 mph - -   Scattered Clouds
10:45 PM 64.4 °F 50.0 °F 59% 30.34 in 7.0 mi East 6.9 mph - N/A   Mostly Cloudy
11:45 PM 64.4 °F 50.0 °F 59% 30.34 in 7.0 mi Calm Calm - N/A   Mostly Cloudy